Regional Weather Roundup
Issued by NWS

Home | Current Version | Previous Version | Text Only | Print | Product List | Glossary Off
Versions: 1 2 3 4 5 6 7 8 9 10 11 12 13 14 15 16 17 18 19 20 21 22 23 24 25 26 27 28 29 30 31 32 33 34 35 36 37 38 39 40 41 42 43 44 45 46 47 48 49 50

000
ASUS43 KOAX 231503
RWRNE

WEATHER ROUNDUP FOR NEBRASKA
NATIONAL WEATHER SERVICE OMAHA NE
1000 AM CDT WED MAY 23 2018

NOTES: SATELLITE DATA IS BEING USED TO AUGMENT CLOUD COVER ABOVE
       12000 FEET.
       "FAIR" INDICATES FEW OR NO CLOUDS BELOW 12,000 FEET WITH NO
       SIGNIFICANT WEATHER AND/OR OBSTRUCTIONS TO VISIBILITY.


NEZ001>004-019>022-054>056-231600-
NEBRASKA PANHANDLE

CITY           SKY/WX    TMP DP  RH WIND       PRES   REMARKS
SCOTTSBLUFF    MOSUNNY   60  57  89 NW3       30.00R
ALLIANCE       PTSUNNY   68  57  68 W13       29.97R
CHADRON        PTSUNNY   60  57  89 W9        29.97S
GORDON         FAIR      63  58  83 W13       29.94F
KIMBALL        PTSUNNY   61  53  75 W3        30.04R
SIDNEY         PTSUNNY   65  54  67 NE7       30.00S
$$

NEZ057>060-069>072-079>082-231600-
SOUTHWEST NEBRASKA

CITY           SKY/WX    TMP DP  RH WIND       PRES   REMARKS
NORTH PLATTE   PTSUNNY   72  63  73 S5        29.99R
IMPERIAL       PTSUNNY   71  55  56 S9        29.99S
LEXINGTON      MOSUNNY   75  64  68 S15       30.01R
MCCOOK         CLOUDY    71  58  63 S10       30.01R
OGALLALA       PTSUNNY   69  57  64 S9        29.99R
$$

NEZ005>010-023>029-035>040-094-231600-
NORTH CENTRAL NEBRASKA

CITY           SKY/WX    TMP DP  RH WIND       PRES   REMARKS
VALENTINE      MOSUNNY   74  61  63 S12       29.93R
AINSWORTH      MOSUNNY   74  64  72 S15       29.95R
BROKEN BOW     MOSUNNY   74  63  68 S13G23    29.99S
O`NEILL        PTSUNNY   78  66  67 S10       29.98S
ORD            MOSUNNY   73  64  73 S17G25    29.97S
THEDFORD       MOSUNNY   75  60  58 S18       29.97R
$$

NEZ041-046>049-061>064-073>077-083>087-231600-
SOUTH CENTRAL NEBRASKA

CITY           SKY/WX    TMP DP  RH WIND       PRES   REMARKS
GRAND ISLAND   SUNNY     77  66  68 S20G28    30.02R
AURORA         SUNNY     78  67  66 S13G20    30.03R
HASTINGS       SUNNY     77  65  66 S13G23    30.03R
HEBRON         SUNNY     82  65  56 S15       30.05S
HOLDREGE       MOSUNNY   75  63  65 S15G21    30.02S
KEARNEY        CLOUDY    78  64  61 S20       30.02S
YORK           MOSUNNY   81  68  65 S16       30.04R
$$

NEZ011>018-030>034-042>045-231600-
NORTHEAST NEBRASKA

CITY           SKY/WX    TMP DP  RH WIND       PRES   REMARKS
NORFOLK        CLOUDY    77  66  68 S13       29.99F
ALBION         SUNNY     78  66  66 S16       30.01S
BLAIR          SUNNY     78  68  71 S13       30.06F
COLUMBUS       SUNNY     80  66  62 S15G22    30.03S
FREMONT        SUNNY     80  68  65 S10       30.05S
TEKAMAH        SUNNY     78  69  73 S15       30.04S
WAYNE          PTSUNNY   77  74  91 S14       30.01F
$$

NEZ050>053-065>068-078-088>093-231600-
SOUTHEAST NEBRASKA

CITY           SKY/WX    TMP DP  RH WIND       PRES   REMARKS
LINCOLN        SUNNY     81  66  60 S10G23    30.06R
OMAHA EPPLEY   MOSUNNY   80  67  64 S14       30.06S
BEATRICE       SUNNY     81  69  66 S13       30.07S
FALLS CITY     SUNNY     81  67  62 S8        30.08R
NEBRASKA CITY  SUNNY     80  71  74 S12       30.09R
PLATTSMOUTH    MOSUNNY   78  69  74 SE8       30.08R
$$

NEZ044-045-051>053-067-231600-
OMAHA AREA

CITY           SKY/WX    TMP DP  RH WIND       PRES   REMARKS
OMAHA EPPLEY   MOSUNNY   80  67  64 S14       30.06S
BLAIR          SUNNY     78  68  71 S13       30.06F
FREMONT        SUNNY     80  68  65 S10       30.05S
MILLARD        SUNNY     80  70  71 S9        30.07S
OFFUTT AFB     SUNNY     79  69  71 S10       30.06S
PLATTSMOUTH    MOSUNNY   78  69  74 SE8       30.08R
WAHOO          FAIR      80  65  61 S13       30.05F
$$




USA.gov is the U.S. government's official web portal to all federal, state and local government web resources and services.